Location: Boda
(47.1872°N, 9.5454°E)
Time: 09:39:41
(UTC+00:00)

AQUA - Pass Details

Date: 14 May 2021
Orbit: 702 x 703 km, 98.2° (Epoch: 17 June)

Event Time Altitude Azimuth Distance (km) Brightness Sun altitude
Rises 01:26:07 0° 13° (NNE) 3,103 8.5 -18.2°
Reaches altitude 10° 01:28:23 10° 14° (NNE) 2,180 7.5 -18.0°
Maximum altitude 01:33:10 90° 291° (WNW) 709 3.8 -17.5°
Enters shadow 01:35:33 30° 195° (SSW) 1,244 4.6 -17.3°
